Regional Weather Roundup
Issued by NWS

Home | Current Version | Previous Version | Graphics & Text | Print | Product List | Glossary On
Versions: 1 2 3 4 5 6 7 8 9 10 11 12 13 14 15 16 17 18 19 20 21 22 23 24 25 26 27 28 29 30 31 32 33 34 35 36 37 38 39 40 41 42 43 44 45 46 47 48 49 50
000
ASUS43 KLSX 251459
RWRMO

WEATHER SUMMARY FOR MISSOURI
NATIONAL WEATHER SERVICE SPRINGFIELD MO
1000 AM CDT FRI JUL 25 2014

NOTE: "FAIR" INDICATES FEW OR NO CLOUDS BELOW 12,000 FEET WITH NO
       SIGNIFICANT WEATHER AND/OR OBSTRUCTIONS TO VISIBILITY.
       CURRENT SKY AND/OR WEATHER CONDITIONS ARE NOT AVAILABLE FOR
       CHILLICOTHE AND FARMINGTON.

MOZ001>031-035>038-043-044-053-054-251600-
...NORTHERN AND WESTERN MISSOURI...

CITY           SKY/WX    TMP DP  RH WIND       PRES   REMARKS
KANSAS CTY INT PTSUNNY   79  71  76 S20G26    29.85F
KANSAS C DTWN  PTSUNNY   82  70  66 SW18      29.85F
LEE`S SUMMIT   SUNNY     80  70  71 S14G20    29.88F
ST JOSEPH      MOSUNNY   82  72  71 SW17G23   29.82F
CHILLICOTHE      N/A     74  64  71 SE6       29.92F
KIRKSVILLE     CLOUDY    63  59  87 E12       29.99R

$$
MOZ066>068-077>081-088>096-101>105-251600-
...SOUTHWEST MISSOURI...

CITY           SKY/WX    TMP DP  RH WIND       PRES   REMARKS
SPRINGFIELD    PTSUNNY   75  68  78 S16       30.02F
JOPLIN         MOSUNNY   81  71  71 S18G25    29.99F

$$
MOZ032>034-039>042-045>050-055>058-069>072-251600-
...CENTRAL MISSOURI...

CITY           SKY/WX    TMP DP  RH WIND       PRES   REMARKS
COLUMBIA       MOSUNNY   75  61  61 SE14      30.00S
JEFFERSON CITY PTSUNNY   76  60  57 SE13G18   29.99F
ROLLA          PTSUNNY   73  57  57 S14       30.03F
SEDALIA        SUNNY     77  66  68 S16G26    29.94F
OSAGE BEACH    MOSUNNY   75  63  64 S9        30.00S

$$
MOZ051-052-059>065-251600-
...EAST CENTRAL MISSOURI...

CITY           SKY/WX    TMP DP  RH WIND       PRES   REMARKS
ST LOUIS INTL  PTSUNNY   73  58  59 S5        30.08R
SPIRIT OF STL  PTSUNNY   71  58  63 S5        30.06S
ST CHARLES     CLOUDY    68  64  87 E5        30.06F

$$
MOZ072>076-082>087-097>100-106>115-251600-
...SOUTH CENTRAL AND SOUTHEAST MISSOURI...

CITY           SKY/WX    TMP DP  RH WIND       PRES   REMARKS
CAPE GIRARDEAU MOSUNNY   74  62  66 SE5       30.08F
FARMINGTON     MOSUNNY   73  59  60 S7        30.11S
POPLAR BLUFF   MOSUNNY   75  60  59 VRB3      30.06F
WEST PLAINS    MOSUNNY   72  58  61 S8        30.08F

$$


USA.gov is the U.S. government's official web portal to all federal, state and local government web resources and services.